Location: Dompnac
(44.5644°N, 4.1026°E)
Time: 10:22:56
(UTC+00:00)

Cosmos 2026 Rocket - Pass Details

Date: 19 January 2021
Orbit: 940 x 1000 km, 82.9° (Epoch: 26 February)

Event Time Altitude Azimuth Distance (km) Brightness Sun altitude
Rises 05:36:21 0° 356° (N) 3,700 6.9 -17.2°
Reaches altitude 10° 05:38:58 10° 2° (N) 2,756 6.3 -16.7°
Maximum altitude 05:45:06 50° 77° (ENE) 1,256 5.0 -15.7°
Drops below altitude 10° 05:51:14 10° 151° (SSE) 2,762 7.0 -14.6°
Sets 05:53:51 0° 157° (SSE) 3,709 7.6 -14.2°
